Вернуться в каталог

USA 362

АктивенВоенныеVLEO
NORAD 59822·PAYLOAD·🇺🇸 United States

Запущен May 22, 2024 с Vandenberg Space Force Base

Loading…

Ближайшие Пролёты (ближайшие 24 часа)

TLE

УстаревшееSource: Mike McCants

Эпоха: Sep 5, 2026, 18:50 UTC

1 59822U 24096J   26248.78528741 0.00000000  00000-0  00000-0 0    04
2 59822  70.0190 124.4127 0002000 244.8087 115.1913 14.96713508    06

Отслеживайте USA 362 в реальном времени с AllMySat

Download on the App Store